Location: Unspecified
(0.0000°N, 0.0000°E)
Time: 21:33:43
(UTC+00:00)

Vanguard 1 Rocket - Pass Details

Date: 26 January 2020
Orbit: 650 x 4226 km, 34.3° (Epoch: 23 February)

Event Time Altitude Azimuth Distance (km) Brightness Sun altitude
Exits shadow 03:49:11 11° 186° (S) 2,237 9.5 -33.6°
Maximum altitude 03:51:53 16° 151° (SSE) 1,780 9.4 -33.0°
Drops below altitude 10° 03:54:38 10° 112° (ESE) 2,050 10.1 -32.4°
Sets 03:57:41 0° 88° (E) 2,975 11.0 -31.6°
